{"data":{"norad_id":63118,"epoch":"2026-05-25T03:48:48.592800Z","epoch_age_seconds":68194,"freshness":"FRESH","line1":"1 63118U 25039Q   26145.15889575  .00012255  00000+0  45409-3 0  9993","line2":"2 63118  43.0070 300.7557 0002536 251.4443 108.6133 15.27581060 69766","mean_motion":15.2758106,"eccentricity":0.0002536,"inclination_deg":43.007,"raan_deg":300.7557,"arg_perigee_deg":251.4443,"mean_anomaly_deg":108.6133,"bstar":0.00045409,"rev_number":6976,"period_min":94.266683301245,"perigee_km":481.30592603113,"apogee_km":484.78591800918,"semimajor_km":6861.1829220202,"source":"CELESTRAK","updated_at":"2026-05-25T13:38:19.911601Z"}}